TimeCST,TemperatureF,Dew PointF,Humidity,Sea Level PressureIn,VisibilityMPH,Wind Direction,Wind SpeedMPH,Gust SpeedMPH,PrecipitationIn,Events,Conditions,WindDirDegrees,DateUTC
12:15 AM,14.0,6.8,73,30.32,10.0,NW,9.2,-,N/A,,Scattered Clouds,310,2013-01-21 06:15:00
12:35 AM,12.2,6.8,79,30.32,10.0,West,5.8,-,N/A,,Scattered Clouds,280,2013-01-21 06:35:00
12:55 AM,12.2,6.8,79,30.33,10.0,WNW,11.5,-,N/A,,Scattered Clouds,290,2013-01-21 06:55:00
1:15 AM,14.0,6.8,73,30.32,10.0,WNW,16.1,19.6,N/A,,Mostly Cloudy,300,2013-01-21 07:15:00
1:35 AM,14.0,6.8,73,30.31,10.0,NW,13.8,-,N/A,,Overcast,310,2013-01-21 07:35:00
1:55 AM,14.0,6.8,73,30.32,10.0,WNW,16.1,19.6,N/A,,Overcast,300,2013-01-21 07:55:00
2:15 AM,12.2,5.0,73,30.33,10.0,NW,13.8,20.7,N/A,,Overcast,310,2013-01-21 08:15:00
2:35 AM,12.2,3.2,67,30.32,10.0,WNW,8.1,17.3,N/A,,Scattered Clouds,300,2013-01-21 08:35:00
2:55 AM,12.2,3.2,67,30.32,10.0,WNW,13.8,18.4,N/A,,Clear,300,2013-01-21 08:55:00
3:15 AM,12.2,3.2,67,30.31,10.0,WNW,11.5,19.6,N/A,,Clear,300,2013-01-21 09:15:00
3:35 AM,12.2,3.2,67,30.31,10.0,WNW,17.3,25.3,N/A,,Clear,300,2013-01-21 09:35:00
3:55 AM,12.2,1.4,62,30.31,10.0,WNW,18.4,21.9,N/A,,Clear,300,2013-01-21 09:55:00
4:15 AM,12.2,1.4,62,30.31,10.0,WNW,15.0,24.2,N/A,,Clear,300,2013-01-21 10:15:00
4:35 AM,12.2,-0.4,57,30.32,10.0,NW,10.4,23.0,N/A,,Clear,310,2013-01-21 10:35:00
4:55 AM,12.2,-0.4,57,30.32,10.0,WNW,17.3,26.5,N/A,,Clear,290,2013-01-21 10:55:00
5:15 AM,10.4,-0.4,62,30.32,10.0,WNW,17.3,26.5,N/A,,Clear,300,2013-01-21 11:15:00
5:35 AM,10.4,-0.4,62,30.32,10.0,WNW,16.1,25.3,N/A,,Scattered Clouds,300,2013-01-21 11:35:00
5:55 AM,10.4,-0.4,62,30.32,10.0,WNW,19.6,26.5,N/A,,Scattered Clouds,300,2013-01-21 11:55:00
6:15 AM,10.4,-2.2,57,30.32,10.0,NW,17.3,25.3,N/A,,Clear,310,2013-01-21 12:15:00
6:35 AM,8.6,-2.2,62,30.32,10.0,WNW,12.7,24.2,N/A,,Clear,300,2013-01-21 12:35:00
6:55 AM,8.6,-2.2,62,30.33,10.0,NW,11.5,17.3,N/A,,Clear,320,2013-01-21 12:55:00
7:15 AM,8.6,-2.2,62,30.34,10.0,NW,13.8,20.7,N/A,,Clear,310,2013-01-21 13:15:00
7:35 AM,8.6,-2.2,62,30.34,10.0,NW,13.8,19.6,N/A,,Clear,310,2013-01-21 13:35:00
7:55 AM,8.6,-2.2,62,30.35,10.0,NW,10.4,16.1,N/A,,Clear,320,2013-01-21 13:55:00
8:15 AM,8.6,-2.2,62,30.35,10.0,NW,17.3,20.7,N/A,,Scattered Clouds,310,2013-01-21 14:15:00
8:35 AM,8.6,-4.0,57,30.35,10.0,WNW,16.1,21.9,N/A,,Scattered Clouds,300,2013-01-21 14:35:00
8:55 AM,8.6,-4.0,57,30.36,10.0,NW,13.8,21.9,N/A,,Scattered Clouds,320,2013-01-21 14:55:00
9:15 AM,8.6,-5.8,52,30.36,10.0,WNW,16.1,27.6,N/A,,Scattered Clouds,300,2013-01-21 15:15:00
9:35 AM,8.6,-7.6,48,30.37,10.0,NW,17.3,21.9,N/A,,Clear,320,2013-01-21 15:35:00
9:55 AM,10.4,-7.6,44,30.37,10.0,NW,15.0,24.2,N/A,,Clear,320,2013-01-21 15:55:00
10:15 AM,10.4,-7.6,44,30.38,10.0,NW,13.8,19.6,N/A,,Clear,320,2013-01-21 16:15:00
10:35 AM,10.4,-7.6,44,30.38,10.0,WNW,19.6,24.2,N/A,,Clear,290,2013-01-21 16:35:00
10:55 AM,10.4,-7.6,44,30.40,10.0,WNW,13.8,17.3,N/A,,Clear,300,2013-01-21 16:55:00
11:15 AM,10.4,-9.4,41,30.39,10.0,NW,18.4,23.0,N/A,,Clear,310,2013-01-21 17:15:00
11:35 AM,12.2,-7.6,41,30.38,10.0,WNW,10.4,20.7,N/A,,Clear,290,2013-01-21 17:35:00
11:55 AM,12.2,-11.2,34,30.38,10.0,WNW,16.1,21.9,N/A,,Clear,300,2013-01-21 17:55:00
12:15 PM,12.2,-9.4,38,30.37,10.0,NNW,9.2,17.3,N/A,,Clear,330,2013-01-21 18:15:00
12:35 PM,12.2,-9.4,38,30.36,10.0,WNW,11.5,17.3,N/A,,Clear,300,2013-01-21 18:35:00
12:55 PM,14.0,-11.2,32,30.35,10.0,NNW,10.4,-,N/A,,Clear,330,2013-01-21 18:55:00
1:15 PM,12.2,-14.8,29,30.35,10.0,NW,15.0,20.7,N/A,,Clear,310,2013-01-21 19:15:00
1:35 PM,12.2,-11.2,34,30.35,10.0,WNW,9.2,18.4,N/A,,Clear,300,2013-01-21 19:35:00
1:55 PM,14.0,-11.2,32,30.35,10.0,WNW,5.8,-,N/A,,Clear,300,2013-01-21 19:55:00
2:15 PM,12.2,-11.2,34,30.36,10.0,WNW,18.4,-,N/A,,Clear,290,2013-01-21 20:15:00
2:35 PM,12.2,-11.2,34,30.36,10.0,NW,11.5,-,N/A,,Scattered Clouds,320,2013-01-21 20:35:00
2:55 PM,12.2,-11.2,34,30.35,10.0,NW,9.2,16.1,N/A,,Scattered Clouds,310,2013-01-21 20:55:00
3:15 PM,12.2,-9.4,38,30.35,10.0,West,4.6,-,N/A,,Mostly Cloudy,280,2013-01-21 21:15:00
3:35 PM,14.0,-7.6,38,30.35,10.0,WNW,9.2,-,N/A,,Scattered Clouds,290,2013-01-21 21:35:00
3:55 PM,12.2,-7.6,41,30.35,10.0,West,13.8,-,N/A,,Clear,280,2013-01-21 21:55:00
4:15 PM,12.2,-9.4,38,30.35,10.0,West,11.5,-,N/A,,Clear,280,2013-01-21 22:15:00
4:35 PM,12.2,-7.6,41,30.35,10.0,West,9.2,-,N/A,,Clear,280,2013-01-21 22:35:00
4:55 PM,12.2,-7.6,41,30.36,10.0,West,8.1,-,N/A,,Clear,280,2013-01-21 22:55:00
5:15 PM,10.4,-7.6,44,30.36,10.0,West,8.1,-,N/A,,Clear,270,2013-01-21 23:15:00
5:35 PM,10.4,-7.6,44,30.36,10.0,West,6.9,-,N/A,,Scattered Clouds,270,2013-01-21 23:35:00
5:55 PM,10.4,-5.8,48,30.36,10.0,West,6.9,-,N/A,,Scattered Clouds,280,2013-01-21 23:55:00
6:15 PM,10.4,-5.8,48,30.36,10.0,West,6.9,-,N/A,,Clear,280,2013-01-22 00:15:00
6:35 PM,10.4,-5.8,48,30.36,10.0,West,6.9,-,N/A,,Clear,280,2013-01-22 00:35:00
6:55 PM,10.4,-5.8,48,30.36,10.0,Calm,Calm,-,N/A,,Clear,0,2013-01-22 00:55:00
7:15 PM,10.4,-5.8,48,30.36,10.0,WNW,3.5,-,N/A,,Clear,290,2013-01-22 01:15:00
7:35 PM,10.4,-4.0,52,30.37,10.0,Calm,Calm,-,N/A,,Clear,0,2013-01-22 01:35:00
7:55 PM,10.4,-2.2,57,30.37,10.0,Calm,Calm,-,N/A,,Clear,0,2013-01-22 01:55:00
8:15 PM,10.4,-2.2,57,30.37,10.0,Calm,Calm,-,N/A,,Clear,0,2013-01-22 02:15:00
8:35 PM,8.6,-2.2,62,30.37,10.0,Calm,Calm,-,N/A,,Clear,0,2013-01-22 02:35:00
8:55 PM,8.6,-2.2,62,30.38,10.0,Calm,Calm,-,N/A,,Clear,0,2013-01-22 02:55:00
9:15 PM,8.6,-2.2,62,30.38,10.0,Calm,Calm,-,N/A,,Clear,0,2013-01-22 03:15:00
9:35 PM,8.6,-2.2,62,30.38,10.0,Calm,Calm,-,N/A,,Clear,0,2013-01-22 03:35:00
9:55 PM,8.6,-2.2,62,30.38,10.0,Calm,Calm,-,N/A,,Clear,0,2013-01-22 03:55:00
10:15 PM,8.6,-2.2,62,30.38,10.0,Calm,Calm,-,N/A,,Clear,0,2013-01-22 04:15:00
10:35 PM,8.6,-2.2,62,30.38,10.0,Calm,Calm,-,N/A,,Clear,0,2013-01-22 04:35:00
10:55 PM,8.6,-2.2,62,30.38,10.0,Calm,Calm,-,N/A,,Clear,0,2013-01-22 04:55:00
11:15 PM,8.6,-2.2,62,30.38,10.0,Calm,Calm,-,N/A,,Clear,0,2013-01-22 05:15:00
11:35 PM,8.6,-2.2,62,30.38,10.0,NW,3.5,-,N/A,,Clear,310,2013-01-22 05:35:00
11:55 PM,8.6,-2.2,62,30.37,10.0,Calm,Calm,-,N/A,,Clear,0,2013-01-22 05:55:00